Location: Malcolm X Square
(37.7810°N, 122.4297°W)
Time: 23:37:34
(UTC+00:00)

Cosmos 1805 - Pass Details

Date: 13 April 2024
Orbit: 490 x 494 km, 82.5° (Epoch: 21 May)

Event Time Altitude Azimuth Distance (km) Brightness Sun altitude
Rises 12:04:15 0° 349° (N) 2,574 7.0 -17.9°
Reaches altitude 10° 12:06:22 10° 347° (NNW) 1,687 6.0 -17.6°
Maximum altitude 12:10:02 67° 265° (W) 534 3.0 -16.9°
Enters shadow 12:12:53 16° 184° (S) 1,352 5.0 -16.4°
